Lanai City, HI

11:59 AM HST on February 23, 2017 (GMT -1000)
Lanai City

Weather History for PHNY - October, 2013

Change the Weather History Date:

Saturday, October 5, 2013

  Actual Average Record
Temperature  
Mean Temperature 76 °F -  
Max Temperature 84 °F 82 °F 89 °F (2004)
Min Temperature 68 °F 66 °F 57 °F (1949)
Cooling Degree Days 11    
Growing Degree Days 26 (Base 50)    
Moisture  
Dew Point 65 °F    
Average Humidity 73    
Maximum Humidity 93    
Minimum Humidity 55    
Precipitation  
Precipitation 0.00 in - - ()
Sea Level Pressure  
Sea Level Pressure 29.99 in    
Wind  
Wind Speed 9 mph (NE)    
Max Wind Speed 20 mph    
Max Gust Speed 26 mph    
Visibility 10 miles    
Events      
Averages and records for this station are not official NWS values.
T = Trace of Precipitation, MM = Missing Value Source: NWS Daily Summary

Daily Weather History Graph

Daily Weather History Graph

Search for Another Location

Airport or City:

Trip Planner

Search our weather history database for the weather conditions in past years. The results will help you decide how hot, cold, wet, or windy it might be!

Date:

Astronomy

Oct. 05, 2013 Rise Set
Actual Time 6:20 AM HST 6:11 PM HST
Civil Twilight 5:57 AM HST 6:33 PM HST
Nautical Twilight 5:32 AM HST 6:59 PM HST
Astronomical Twilight 5:06 AM HST 7:25 PM HST
Moon 7:00 AM HST (10/5) 6:51 PM HST (10/5)
Length of Visible Light 12h 35m
Length of Day
11h 51m
New Moon, 1% of the Moon is Illuminated
Oct 5
New Moon
Oct 11
First Quarter
Oct 18
Full
Oct 26
Last Quarter
Nov 3
New

Hourly Weather History & Observations

Time (HST) Temp. Heat Index Dew Point Humidity Pressure Visibility Wind Dir Wind Speed Gust Speed Precip Events Conditions
12:56 AM 70.0 °F - 66.9 °F 90% 29.98 in 10.0 mi NNE 4.6 mph - N/A   Mostly Cloudy
1:56 AM 68.9 °F - 65.8 °F 90% 29.97 in 10.0 mi ENE 5.8 mph - N/A   Clear
2:56 AM 68.9 °F - 66.9 °F 93% 29.97 in 10.0 mi ENE 9.2 mph - N/A   Clear
3:56 AM 70.0 °F - 65.8 °F 87% 29.96 in 10.0 mi NE 13.8 mph - N/A   Mostly Cloudy
4:56 AM 68.9 °F - 65.8 °F 90% 29.96 in 10.0 mi NE 12.7 mph - N/A   Partly Cloudy
5:56 AM 68.9 °F - 65.8 °F 90% 29.97 in 10.0 mi NE 13.8 mph - N/A   Scattered Clouds
6:56 AM 70.9 °F - 66.9 °F 87% 29.98 in 10.0 mi ENE 10.4 mph - N/A   Overcast
7:56 AM 75.9 °F - 64.9 °F 69% 29.98 in 10.0 mi East 8.1 mph - N/A   Clear
8:56 AM 79.0 °F - 64.9 °F 62% 29.99 in 10.0 mi ESE 5.8 mph - N/A   Partly Cloudy
9:56 AM 82.9 °F 85.0 °F 65.8 °F 56% 29.99 in 10.0 mi Variable 5.8 mph - N/A   Partly Cloudy
10:09 AM 84.2 °F 86.6 °F 66.2 °F 55% 30.06 in 10.0 mi NW 8.1 mph - N/A   Mostly Cloudy
10:40 AM 80.6 °F 82.7 °F 66.2 °F 61% 30.05 in 10.0 mi West 9.2 mph - N/A   Scattered Clouds
10:56 AM 80.6 °F 82.7 °F 66.2 °F 61% 30.05 in 10.0 mi Variable 3.5 mph - N/A   Mostly Cloudy
11:32 AM 78.8 °F - 64.4 °F 61% 30.05 in 10.0 mi SSW 6.9 mph - N/A   Overcast
11:56 AM 77.9 °F - 64.9 °F 64% 29.97 in 10.0 mi Calm Calm - N/A   Overcast
12:33 PM 80.6 °F 82.7 °F 66.2 °F 61% 30.02 in 10.0 mi Variable 5.8 mph - N/A   Overcast
12:56 PM 79.9 °F - 65.8 °F 62% 29.95 in 10.0 mi WSW 6.9 mph - N/A   Mostly Cloudy
1:22 PM 78.8 °F - 64.4 °F 61% 30.01 in 10.0 mi West 5.8 mph - N/A   Overcast
1:56 PM 79.0 °F - 65.8 °F 64% 29.93 in 10.0 mi NE 19.6 mph 24.2 mph N/A   Overcast
2:56 PM 79.0 °F - 63.0 °F 58% 29.91 in 10.0 mi NE 18.4 mph 25.3 mph N/A   Mostly Cloudy
3:56 PM 77.0 °F - 64.9 °F 66% 29.92 in 10.0 mi NE 17.3 mph - N/A   Overcast
4:28 PM 75.2 °F - 64.4 °F 69% 29.98 in 10.0 mi NE 15.0 mph 26.5 mph N/A   Overcast
4:56 PM 75.2 °F - 64.4 °F 69% 29.98 in 10.0 mi NE 17.3 mph 26.5 mph N/A   Mostly Cloudy
5:56 PM 73.9 °F - 63.9 °F 71% 29.94 in 10.0 mi ENE 12.7 mph - N/A   Mostly Cloudy
6:56 PM 72.0 °F - 63.9 °F 76% 29.96 in 10.0 mi NE 11.5 mph - N/A   Partly Cloudy
7:56 PM 71.6 °F - 66.2 °F 83% 30.04 in 10.0 mi NE 5.8 mph - N/A   Overcast
8:56 PM 70.9 °F - 64.9 °F 81% 29.99 in 10.0 mi NE 8.1 mph - N/A   Mostly Cloudy
9:56 PM 70.0 °F - 65.8 °F 87% 30.00 in 10.0 mi ENE 5.8 mph - N/A   Partly Cloudy
10:56 PM 68.9 °F - 64.9 °F 87% 30.00 in 10.0 mi East 5.8 mph - N/A   Scattered Clouds
11:56 PM 68.0 °F - 64.9 °F 90% 29.99 in 10.0 mi NE 4.6 mph - N/A   Mostly Cloudy